Location: Most
(50.5133°N, 13.6207°E)
Time: 10:49:06
(UTC+01:00)

Oscar 11 - Pass Details

Date: 02 December 2022
Orbit: 611 x 621 km, 97.6° (Epoch: 28 January)

Event Time Altitude Azimuth Distance (km) Brightness Sun altitude
Rises 05:23:58 0° 9° (N) 2,892 10.5 -21.6°
Reaches altitude 10° 05:26:12 10° 4° (N) 1,981 9.6 -21.2°
Enters shadow 05:29:16 39° 334° (NNW) 923 7.6 -20.7°
